Regional Weather Roundup
Issued by NWS

Home | Current Version | Previous Version | Graphics & Text | Print | Product List | Glossary On
Versions: 1 2 3 4 5 6 7 8 9 10 11 12 13 14 15 16 17 18 19 20 21 22 23 24 25 26 27 28 29 30 31 32 33 34 35 36 37 38 39 40 41 42 43 44 45 46 47 48 49 50
000
ASUS43 KTOP 280759
RWRKS

WEATHER ROUNDUP FOR KANSAS
NATIONAL WEATHER SERVICE GOODLAND KS
300 AM CDT THU MAY 28 2015

NOTE:  "FAIR" INDICATES FEW OR NO CLOUDS BELOW 12,000 FEET WITH NO
SIGNIFICANT WEATHER AND/OR OBSTRUCTIONS TO VISIBILITY.

KSZ001>006-013>018-027>032-041>047-280900-
NORTHWEST KANSAS

CITY           SKY/WX    TMP DP  RH WIND       PRES   REMARKS
GOODLAND       PTCLDY    56  54  93 S17       30.00F
HAYS           MOCLDY    59  50  72 S3        30.00S
HILL CITY      MOCLDY    60  54  80 SW6       30.00F
RUSSELL        CLOUDY    62  55  77 SW7       29.98S
$$

KSZ061>065-074>080-084>089-280900-
SOUTHWEST KANSAS

CITY           SKY/WX    TMP DP  RH WIND       PRES   REMARKS
DODGE CITY     CLOUDY    60  56  86 SE9       30.03S
ELKHART          N/A     62  55  77 E8          N/A
GARDEN CITY    LGT RAIN  59  57  93 SE13      30.03R
GREAT BEND     CLOUDY    57  54  88 S5        29.99F
LIBERAL        CLOUDY    64  55  72 N15       30.11R
$$

KSZ066>073-081>083-090>101-280900-
SOUTHEAST KANSAS

CITY           SKY/WX    TMP DP  RH WIND       PRES   REMARKS
CHANUTE        MOCLDY    68  63  84 SE6       30.05F
COFFEYVILLE    MOCLDY    67  65  93 E3        30.05F
HUTCHINSON     CLOUDY    62  59  90 W5        29.99R
NEWTON         CLOUDY    63  57  82 SE7       30.05F THUNDER
PARSONS        MOCLDY    68  66  93 CALM      30.06F
WICHITA INTL   CLOUDY    66  63  90 SE6       30.04S THUNDER
WICHITA JABRA  TSTM      64  64 100 W12G22    30.04R FOG
WICHITA MCCONL LGT RAIN  64  62  92 S12       30.04F
WINFIELD       RAIN      63  61  93 SE6       30.05F
$$

KSZ007>012-019>026-033>040-048>060-102>105-280900-
NORTHEAST KANSAS

CITY           SKY/WX    TMP DP  RH WIND       PRES   REMARKS
CONCORDIA      CLOUDY    63  61  93 SE8       30.00F
EMPORIA        CLOUDY    68  59  73 SE13      30.03F
LAWRENCE       CLOUDY    64  57  78 E5        30.06F
MANHATTAN      LGT RAIN  70  58  65 SE8       30.01F
OLATHE IND     MOCLDY    68  56  65 E9        30.07F
OLATHE EXE     MOCLDY    68  56  65 SE8       30.07F
SALINA         RAIN      65  60  84 NE3       30.00F
TOPEKA BILLARD CLOUDY    66  59  78 E5        30.06F
TOPEKA FORBES  CLOUDY    68  57  68 E7        30.06F
$$


USA.gov is the U.S. government's official web portal to all federal, state and local government web resources and services.